Eastsound, WA
on Wednesday, December 12, 2012

Wednesday
Previous Day Next Day
Daily Summary
 ActualAverage (KBLI)Record (KBLI)
Temperature
Mean Temperature °F 38°F  
Max Temperature 44°F 44°F 61°F (1952)
Min Temperature 41°F 32°F 17°F (1972)
Degree Days
Heating Degree Days 22 27  
Month to date heating degree days 314  
Cooling Degree Days 0 0  
Month to date cooling degree days 0  
Year to date cooling degree days 42  
Moisture
Dew Point 39°F   
Average Humidity 86    
Maximum Humidity 100    
Minimum Humidity 81    
Precipitation
Precipitation 0.00 in 0.13 in 1.61 in (2010)
Month to date precipitation 1.82  
Year to date precipitation 33.43  
Wind
Wind Speed 7 mph   
Max Wind Speed 14 mph   
Max Gust Speed 18 mph   
Visibility 10 miles   
Events Rain   

Key: T is trace of precipitation, MM is missing value
Source: NWS Daily Summary
Time(PST)TemperatureDew PointHumidity Pressure Visibility Wind DirectionWind SpeedGust SpeedPrecipitationEvents Conditions
12:15 AM 42.8°F 41.0°F 93% 29.58 in 10.0 miles SW 4.6 mph - N/A   Overcast
12:35 AM 44.6°F 41.0°F 87% 29.59 in 10.0 miles WNW 3.5 mph - N/A   Overcast
12:55 AM 44.6°F 41.0°F 87% 29.59 in 10.0 miles Calm Calm - N/A   Overcast
1:15 AM 44.6°F 41.0°F 87% 29.60 in 10.0 miles WNW 5.8 mph - N/A   Overcast
1:35 AM 44.6°F 41.0°F 87% 29.60 in 10.0 miles WNW 4.6 mph - N/A   Overcast
2:15 AM 42.8°F 41.0°F 93% 29.61 in 10.0 miles NNW 6.9 mph - N/A   Overcast
2:35 AM 42.8°F 41.0°F 93% 29.62 in 8.0 miles North 10.4 mph - N/A   Overcast
2:55 AM 42.8°F 41.0°F 93% 29.63 in 10.0 miles North 6.9 mph - N/A   Overcast
3:15 AM 42.8°F 41.0°F 93% 29.64 in 10.0 miles North 6.9 mph - N/A   Overcast
3:35 AM 42.8°F 41.0°F 93% 29.64 in 10.0 miles North 4.6 mph - N/A   Overcast
3:55 AM 41.0°F 41.0°F 100% 29.64 in 10.0 miles North 5.8 mph - N/A   Overcast
4:15 AM 41.0°F 41.0°F 100% 29.65 in 9.0 miles North 8.1 mph - N/A   Overcast
4:35 AM 41.0°F 41.0°F 100% 29.66 in 10.0 miles North 5.8 mph - N/A   Overcast
5:15 AM 41.0°F 41.0°F 100% 29.68 in 6.0 miles Calm Calm - N/A   Overcast
5:35 AM 41.0°F 41.0°F 100% 29.68 in 10.0 miles Calm Calm - N/A   Overcast
5:55 AM 41.0°F 41.0°F 100% 29.69 in 2.0 miles North 9.2 mph - N/A Rain Light Rain
6:15 AM 41.0°F 39.2°F 93% 29.69 in 10.0 miles North 8.1 mph - N/A Rain Light Rain
6:35 AM 42.8°F 39.2°F 87% 29.70 in 10.0 miles North 11.5 mph 16.1 mph N/A   Overcast
6:55 AM 42.8°F 39.2°F 87% 29.71 in 10.0 miles North 12.7 mph - N/A   Overcast
7:15 AM 42.8°F 39.2°F 87% 29.71 in 10.0 miles NNW 11.5 mph 18.4 mph N/A   Overcast
7:35 AM 42.8°F 39.2°F 87% 29.72 in 5.0 miles NNW 11.5 mph - N/A Rain Light Rain
7:55 AM 42.8°F 39.2°F 87% 29.73 in 10.0 miles North 11.5 mph 16.1 mph N/A   Overcast
8:15 AM 42.8°F 39.2°F 87% 29.74 in 8.0 miles NNW 9.2 mph - N/A Rain Light Rain
8:35 AM 42.8°F 37.4°F 81% 29.75 in 10.0 miles NNW 13.8 mph 17.3 mph N/A   Overcast
8:55 AM 42.8°F 37.4°F 81% 29.76 in 10.0 miles North 13.8 mph - N/A   Overcast
9:15 AM 42.8°F 37.4°F 81% 29.77 in 10.0 miles North 12.7 mph - N/A   Overcast
9:35 AM 42.8°F 37.4°F 81% 29.79 in 10.0 miles North 12.7 mph - N/A   Overcast
9:55 AM 42.8°F 37.4°F 81% 29.80 in 10.0 miles North 12.7 mph - N/A   Mostly Cloudy
10:15 AM 42.8°F 37.4°F 81% 29.81 in 10.0 miles North 13.8 mph 17.3 mph N/A   Overcast
10:35 AM 42.8°F 37.4°F 81% 29.82 in 10.0 miles NNW 12.7 mph - N/A   Overcast
11:15 AM 42.8°F 37.4°F 81% 29.83 in 10.0 miles North 9.2 mph - N/A   Overcast
11:35 AM 42.8°F 39.2°F 87% 29.83 in 10.0 miles North 10.4 mph - N/A   Overcast
11:55 AM 42.8°F 37.4°F 81% 29.84 in 10.0 miles North 10.4 mph - N/A   Overcast
12:15 PM 42.8°F 37.4°F 81% 29.84 in 10.0 miles North 10.4 mph - N/A   Overcast
12:35 PM 42.8°F 37.4°F 81% 29.84 in 10.0 miles NNW 10.4 mph - N/A   Overcast
12:55 PM 42.8°F 39.2°F 87% 29.85 in 10.0 miles North 6.9 mph - N/A   Overcast
1:15 PM 42.8°F 39.2°F 87% 29.86 in 10.0 miles North 8.1 mph - N/A   Overcast
1:35 PM 42.8°F 37.4°F 81% 29.86 in 10.0 miles North 8.1 mph - N/A   Overcast
1:55 PM 42.8°F 37.4°F 81% 29.86 in 10.0 miles NNW 6.9 mph - N/A   Overcast
2:15 PM 42.8°F 37.4°F 81% 29.86 in 10.0 miles NNW 5.8 mph - N/A   Overcast
2:35 PM 42.8°F 39.2°F 87% 29.86 in 10.0 miles North 6.9 mph - N/A   Overcast
2:55 PM 42.8°F 39.2°F 87% 29.87 in 10.0 miles Calm Calm - N/A   Overcast
3:15 PM 42.8°F 39.2°F 87% 29.88 in 10.0 miles NNW 5.8 mph - N/A   Overcast
3:35 PM 42.8°F 37.4°F 81% 29.90 in 10.0 miles NNW 5.8 mph - N/A   Overcast
4:15 PM 42.8°F 37.4°F 81% 29.91 in 10.0 miles NNW 6.9 mph - N/A   Overcast
4:35 PM 42.8°F 37.4°F 81% 29.91 in 10.0 miles NNW 6.9 mph - N/A   Overcast
4:55 PM 42.8°F 37.4°F 81% 29.92 in 10.0 miles North 9.2 mph - N/A   Overcast
5:15 PM 42.8°F 37.4°F 81% 29.92 in 10.0 miles North 8.1 mph - N/A   Overcast
5:35 PM 42.8°F 37.4°F 81% 29.93 in 10.0 miles North 6.9 mph - N/A   Overcast
5:55 PM 42.8°F 37.4°F 81% 29.94 in 10.0 miles NNW 6.9 mph - N/A   Overcast
6:15 PM 42.8°F 37.4°F 81% 29.94 in 10.0 miles North 8.1 mph - N/A   Overcast
6:35 PM 42.8°F 37.4°F 81% 29.95 in 10.0 miles NNW 9.2 mph - N/A   Overcast
6:55 PM 42.8°F 37.4°F 81% 29.95 in 10.0 miles NNW 6.9 mph - N/A   Overcast
7:15 PM 42.8°F 37.4°F 81% 29.96 in 10.0 miles North 6.9 mph - N/A   Overcast
7:35 PM 42.8°F 37.4°F 81% 29.96 in 10.0 miles North 4.6 mph - N/A   Overcast
7:55 PM 42.8°F 37.4°F 81% 29.96 in 10.0 miles Calm Calm - N/A   Mostly Cloudy
8:15 PM 41.0°F 37.4°F 87% 29.97 in 10.0 miles Calm Calm - N/A   Mostly Cloudy
8:35 PM 41.0°F 37.4°F 87% 29.98 in 10.0 miles Calm Calm - N/A   Mostly Cloudy
8:55 PM 41.0°F 37.4°F 87% 29.98 in 10.0 miles Calm Calm - N/A   Overcast
9:15 PM 42.8°F 37.4°F 81% 29.98 in 10.0 miles NNW 5.8 mph - N/A   Overcast
9:35 PM 42.8°F 37.4°F 81% 29.99 in 10.0 miles NW 4.6 mph - N/A   Overcast
9:55 PM 42.8°F 37.4°F 81% 30.00 in 10.0 miles NNW 3.5 mph - N/A   Overcast
10:15 PM 42.8°F 37.4°F 81% 30.00 in 10.0 miles NNW 6.9 mph - N/A   Overcast
10:35 PM 42.8°F 37.4°F 81% 30.01 in 10.0 miles NNW 4.6 mph - N/A   Overcast
10:55 PM 42.8°F 37.4°F 81% 30.01 in 10.0 miles NNW 3.5 mph - N/A   Overcast
11:15 PM 42.8°F 37.4°F 81% 30.02 in 10.0 miles NNW 3.5 mph - N/A   Overcast
11:35 PM 42.8°F 37.4°F 81% 30.02 in 10.0 miles Calm Calm - N/A   Overcast
11:55 PM 41.0°F 37.4°F 87% 30.01 in 10.0 miles Calm Calm - N/A   Overcast
Moon Phase
Dec. 12 Dec. 13 Dec. 20 Dec. 28 Jan. 04
Sunrise:07:55 AM (PST) Moon Rise:07:04 AM (PST)12/12
Sunset:04:15 PM (PST) Moon Set:03:59 PM (PST)12/12

Copyright © 2014 The Weather Underground, Inc.